Ed's Weather Station

Ed's Weather Station
Located south of Fulton, MO
Lat. 38.75234 N
Lon. 91.96758 W
Elevation 787 ft

GR3 Radar

Current 24 Hours Yesterday Last 48 Hours Last 72 Hours Last 30 Days Yearly Rainfall Yearly Temp Trends Monthly Wind Direction Last 30 Days Temperature Solar Data
Highs and Lows Trends Sun & Moon Rise\Set Times Moon\Solar Info
Local Weather Advisories Area Forecast Discussion Hazardous Weather Outlook U.S. Severe Weather Storm Prediction Center
All Time Records Monthly Records Yearly Records
Weather Gauges MW Weather Network
Local Area Conditions Printable Weather Flyer MO River Information
About Ed's Weather Weather Station Status Weather Graphic Personal Weather Sites
Kansas City NEXRAD Radar Local/Regional Radar Satellite Images
Weather Underground Data Rain Detail Chart
NWS Forecast Details Ed's Forecast Details UV Forecast Pollen Forecast Space Weather
Member of the following organizations:





Local Links:
Callaway County Sheriff

Eds Weather Station - WU Station History
Station Historical Data
 
Daily Summary for October 21, 2018 Units:  English    Metric   Both
« Previous Day
Next Day »
Daily Weekly Monthly Yearly Custom
  Current: High: Low: Average:
Temperature: 48.4 °F TemperatureF °F 27.8 °F 41.7 °F
Dew Point: 36 °F DewpointF °F 25.8 °F 30.1 °F
Humidity: 62% Humidity% 36% 67%
Wind Speed: 3.5mph WindSpeedMPHmph 0mph 1.9mph
Wind Gust: 0.6mph WindSpeedGustMPHmph - -
WindSSE - - SSE
Pressure: 30.14 in PressureIn in 30.14 in -
Precipitation: 0 in      
Historical Graphs
 
 
Tabular Data for October 21, 2018
Time Temperature Dew Point Pressure Wind Wind Speed Wind Gust Humidity Rainfall Rate (Hourly) solar Conditions
TemperatureF °F DewpointF °F PressureIn in Calm     Humidity% HourlyPrecipIn in SolarRadiationWatts/m^2 W/m2 Conditions
00:04 37.6 °F 26.5 °F 30.36 in Calm     64% 0 in 0.00 W/m2 CLR
00:09 37.3 °F 27 °F 30.36 in Calm     66% 0 in 0.00 W/m2 CLR
00:14 37 °F 27.1 °F 30.36 in Calm     67% 0 in 0.00 W/m2 CLR
00:19 36.5 °F 27.3 °F 30.36 in Calm     69% 0 in 0.00 W/m2 CLR
00:24 36.1 °F 26.9 °F 30.36 in Calm     69% 0 in 0.00 W/m2 CLR
00:29 35.8 °F 27 °F 30.36 in Calm     70% 0 in 0.00 W/m2 CLR
00:34 35.6 °F 27.5 °F 30.36 in Calm     72% 0 in 0.00 W/m2 CLR
00:39 35.4 °F 27.9 °F 30.37 in Calm     74% 0 in 0.00 W/m2 CLR
00:44 35.2 °F 28.1 °F 30.36 in Calm     75% 0 in 0.00 W/m2 CLR
00:49 34.9 °F 27.8 °F 30.37 in Calm     75% 0 in 0.00 W/m2 CLR
00:54 34.6 °F 27.8 °F 30.36 in Calm     76% 0 in 0.00 W/m2 CLR
00:59 34.3 °F 27.2 °F 30.36 in Calm     75% 0 in 0.00 W/m2 CLR
01:04 33.9 °F 27.1 °F 30.36 in Calm     76% 0 in 0.00 W/m2 CLR
01:09 33.7 °F 27.6 °F 30.36 in Calm     78% 0 in 0.00 W/m2 CLR
01:14 33.4 °F 27.6 °F 30.36 in Calm     79% 0 in 0.00 W/m2 CLR
01:19 33 °F 27.2 °F 30.36 in Calm     79% 0 in 0.00 W/m2 CLR
01:24 32.8 °F 27 °F 30.36 in Calm     79% 0 in 0.00 W/m2 CLR
01:29 32.7 °F 27.5 °F 30.36 in Calm     81% 0 in 0.00 W/m2 CLR
01:34 32.5 °F 27.3 °F 30.36 in Calm     81% 0 in 0.00 W/m2 CLR
01:39 32.4 °F 27.5 °F 30.36 in Calm     82% 0 in 0.00 W/m2 CLR
01:44 32.5 °F 27.9 °F 30.36 in Calm     83% 0 in 0.00 W/m2 CLR
01:49 32.5 °F 27.6 °F 30.36 in Calm     82% 0 in 0.00 W/m2 CLR
01:54 32.5 °F 27.6 °F 30.37 in Calm     82% 0 in 0.00 W/m2 CLR
01:59 32.5 °F 27.9 °F 30.37 in Calm     83% 0 in 0.00 W/m2 CLR
02:04 32.5 °F 27.9 °F 30.37 in Calm     83% 0 in 0.00 W/m2 CLR
02:09 32.3 °F 27.7 °F 30.37 in Calm     83% 0 in 0.00 W/m2 CLR
02:14 32.3 °F 28 °F 30.37 in Calm     84% 0 in 0.00 W/m2 CLR
02:19 32.2 °F 27.9 °F 30.37 in Calm     84% 0 in 0.00 W/m2 CLR
02:24 32.3 °F 28 °F 30.38 in Calm     84% 0 in 0.00 W/m2 CLR
02:29 32.2 °F 28.2 °F 30.38 in Calm     85% 0 in 0.00 W/m2 CLR
02:34 31.9 °F 27.9 °F 30.39 in Calm     85% 0 in 0.00 W/m2 CLR
02:39 31.8 °F 27.5 °F 30.39 in Calm     84% 0 in 0.00 W/m2 CLR
02:44 31.6 °F 27.6 °F 30.39 in Calm     85% 0 in 0.00 W/m2 CLR
02:49 31.5 °F 27.5 °F 30.39 in Calm     85% 0 in 0.00 W/m2 CLR
02:54 31.3 °F 27.6 °F 30.39 in Calm     86% 0 in 0.00 W/m2 CLR
02:59 31.1 °F 27.4 °F 30.39 in Calm     86% 0 in 0.00 W/m2 CLR
03:04 30.8 °F 27.1 °F 30.39 in Calm     86% 0 in 0.00 W/m2 CLR
03:09 30.6 °F 26.9 °F 30.39 in Calm     86% 0 in 0.00 W/m2 CLR
03:14 30.5 °F 27.1 °F 30.39 in Calm     87% 0 in 0.00 W/m2 CLR
03:19 30.5 °F 27.1 °F 30.39 in Calm     87% 0 in 0.00 W/m2 CLR
03:24 30.3 °F 26.9 °F 30.39 in Calm     87% 0 in 0.00 W/m2 CLR
03:29 30.3 °F 26.9 °F 30.39 in Calm     87% 0 in 0.00 W/m2 CLR
03:34 30.2 °F 26.8 °F 30.39 in Calm     87% 0 in 0.00 W/m2 CLR
03:39 30.1 °F 26.7 °F 30.39 in Calm     87% 0 in 0.00 W/m2 CLR
03:44 30 °F 26.9 °F 30.38 in Calm     88% 0 in 0.00 W/m2 CLR
03:49 29.9 °F 26.8 °F 30.39 in Calm     88% 0 in 0.00 W/m2 CLR
03:54 29.8 °F 27 °F 30.39 in Calm     89% 0 in 0.00 W/m2 CLR
03:59 29.7 °F 26.9 °F 30.39 in Calm     89% 0 in 0.00 W/m2 CLR
04:04 29.7 °F 26.9 °F 30.39 in Calm     89% 0 in 0.00 W/m2 CLR
04:09 29.7 °F 26.9 °F 30.39 in Calm     89% 0 in 0.00 W/m2 CLR
04:14 29.7 °F 26.9 °F 30.39 in Calm     89% 0 in 0.00 W/m2 CLR
04:19 29.7 °F 26.9 °F 30.39 in Calm     89% 0 in 0.00 W/m2 CLR
04:24 29.8 °F 27.2 °F 30.39 in Calm     90% 0 in 0.00 W/m2 CLR
04:29 29.9 °F 27.3 °F 30.39 in Calm     90% 0 in 0.00 W/m2 CLR
04:34 29.8 °F 27 °F 30.39 in Calm     89% 0 in 0.00 W/m2 CLR
04:39 29.7 °F 26.9 °F 30.39 in Calm     89% 0 in 0.00 W/m2 CLR
04:44 29.5 °F 26.7 °F 30.39 in Calm     89% 0 in 0.00 W/m2 CLR
04:49 29.4 °F 26.6 °F 30.40 in Calm     89% 0 in 0.00 W/m2 CLR
04:54 29.3 °F 26.7 °F 30.39 in Calm     90% 0 in 0.00 W/m2 CLR
04:59 29.2 °F 26.6 °F 30.40 in Calm     90% 0 in 0.00 W/m2 CLR
05:04 29.1 °F 26.5 °F 30.40 in Calm     90% 0 in 0.00 W/m2 CLR
05:09 29 °F 26.4 °F 30.40 in Calm     90% 0 in 0.00 W/m2 CLR
05:14 28.9 °F 26.6 °F 30.40 in Calm     91% 0 in 0.00 W/m2 CLR
05:19 28.9 °F 26.6 °F 30.41 in Calm     91% 0 in 0.00 W/m2 CLR
05:24 28.8 °F 26.5 °F 30.40 in Calm     91% 0 in 0.00 W/m2 CLR
05:29 28.8 °F 26.5 °F 30.41 in Calm     91% 0 in 0.00 W/m2 CLR
05:34 28.8 °F 26.5 °F 30.40 in Calm     91% 0 in 0.00 W/m2 CLR
05:39 28.8 °F 26.5 °F 30.41 in Calm     91% 0 in 0.00 W/m2 CLR
05:44 28.8 °F 26.5 °F 30.41 in Calm     91% 0 in 0.00 W/m2 CLR
05:49 28.7 °F 26.4 °F 30.41 in Calm     91% 0 in 0.00 W/m2 CLR
05:54 28.8 °F 26.5 °F 30.41 in Calm     91% 0 in 0.00 W/m2 CLR
05:59 28.7 °F 26.4 °F 30.41 in Calm     91% 0 in 0.00 W/m2 CLR
06:04 28.7 °F 26.4 °F 30.41 in Calm     91% 0 in 0.00 W/m2 CLR
06:09 28.5 °F 26.2 °F 30.41 in Calm     91% 0 in 0.00 W/m2 CLR
06:14 28.4 °F 26.1 °F 30.41 in Calm     91% 0 in 0.00 W/m2 CLR
06:19 28.3 °F 26 °F 30.41 in Calm     91% 0 in 0.00 W/m2 CLR
06:24 28.2 °F 25.9 °F 30.41 in Calm     91% 0 in 0.00 W/m2 CLR
06:29 28.2 °F 26.2 °F 30.41 in Calm     92% 0 in 0.00 W/m2 CLR
06:34 28.1 °F 26.1 °F 30.41 in Calm     92% 0 in 0.00 W/m2 CLR
06:39 28.1 °F 26.1 °F 30.41 in Calm     92% 0 in 0.00 W/m2 CLR
06:44 28 °F 26 °F 30.40 in Calm     92% 0 in 0.00 W/m2 CLR
06:49 28 °F 26 °F 30.40 in Calm     92% 0 in 0.00 W/m2 CLR
06:54 27.9 °F 25.9 °F 30.40 in Calm     92% 0 in 0.00 W/m2 CLR
06:59 27.9 °F 25.9 °F 30.39 in Calm     92% 0 in 0.00 W/m2 CLR
07:04 27.8 °F 25.8 °F 30.39 in Calm     92% 0 in 0.00 W/m2 CLR
07:09 27.8 °F 25.8 °F 30.39 in Calm     92% 0 in 0.00 W/m2 CLR
07:14 27.8 °F 25.8 °F 30.39 in Calm     92% 0 in 0.00 W/m2 CLR
07:19 27.8 °F 26 °F 30.39 in Calm     93% 0 in 0.00 W/m2 CLR
07:24 27.9 °F 26.1 °F 30.39 in Calm     93% 0 in 0.00 W/m2 CLR
07:29 27.9 °F 26.1 °F 30.40 in Calm     93% 0 in 0.00 W/m2 CLR
07:34 27.9 °F 26.1 °F 30.40 in Calm     93% 0 in 5.00 W/m2 CLR
07:39 28 °F 26.2 °F 30.40 in Calm     93% 0 in 5.00 W/m2 CLR
07:44 28.1 °F 26.3 °F 30.40 in Calm     93% 0 in 7.00 W/m2 CLR
07:49 28.2 °F 26.4 °F 30.41 in Calm     93% 0 in 9.00 W/m2 CLR
07:54 28.3 °F 26.5 °F 30.40 in Calm     93% 0 in 9.00 W/m2 CLR
07:59 28.4 °F 26.6 °F 30.41 in Calm     93% 0 in 11.00 W/m2 CLR
08:04 28.5 °F 26.7 °F 30.41 in Calm     93% 0 in 11.00 W/m2 CLR
08:09 28.5 °F 26.7 °F 30.41 in Calm     93% 0 in 12.00 W/m2 CLR
08:14 28.7 °F 26.9 °F 30.41 in Calm     93% 0 in 12.00 W/m2 CLR
08:19 28.8 °F 27.3 °F 30.42 in Calm     94% 0 in 12.00 W/m2 CLR
08:24 29.1 °F 27.6 °F 30.42 in Calm     94% 0 in 14.00 W/m2 CLR
08:29 29.4 °F 27.9 °F 30.42 in Calm     94% 0 in 14.00 W/m2 CLR
08:34 29.6 °F 28.1 °F 30.41 in Calm     94% 0 in 14.00 W/m2 CLR
08:39 29.9 °F 28.4 °F 30.42 in Calm     94% 0 in 16.00 W/m2 CLR
08:44 30.2 °F 28.7 °F 30.42 in Calm     94% 0 in 16.00 W/m2 CLR
08:49 30.5 °F 29 °F 30.42 in Calm     94% 0 in 18.00 W/m2 CLR
08:54 30.9 °F 29.4 °F 30.42 in Calm     94% 0 in 18.00 W/m2 CLR
08:59 31.4 °F 29.9 °F 30.42 in Calm     94% 0 in 19.00 W/m2 CLR
09:04 31.8 °F 30.3 °F 30.42 in Calm     94% 0 in 19.00 W/m2 CLR
09:09 32.2 °F 30.7 °F 30.42 in Calm     94% 0 in 19.00 W/m2 CLR
09:14 32.6 °F 31.1 °F 30.42 in Calm     94% 0 in 19.00 W/m2 CLR
09:19 33 °F 31.2 °F 30.42 in Calm     93% 0 in 21.00 W/m2 CLR
09:24 34.1 °F 31.2 °F 30.42 in SSE 2 mph 0.8 mph 89% 0 in 21.00 W/m2 CLR
09:29 35.8 °F 30.8 °F 30.41 in South 1.2 mph 0.3 mph 82% 0 in 23.00 W/m2 CLR
09:34 37 °F 30.8 °F 30.41 in SE 2 mph 1.8 mph 78% 0 in 39.00 W/m2 CLR
09:39 38 °F 30.4 °F 30.41 in SE 1.2 mph 1.2 mph 74% 0 in 23.00 W/m2 CLR
09:44 39 °F 30.7 °F 30.40 in SSE 5 mph 2.8 mph 72% 0 in 23.00 W/m2 CLR
09:49 39.8 °F 29 °F 30.40 in South 5.8 mph 2.8 mph 65% 0 in 25.00 W/m2 CLR
09:54 40.5 °F 30 °F 30.39 in SE 9.2 mph 1.8 mph 66% 0 in 26.00 W/m2 CLR
09:59 41.1 °F 30.6 °F 30.39 in SSE 3.5 mph 1.9 mph 66% 0 in 25.00 W/m2 CLR
10:04 41.4 °F 29.3 °F 30.39 in SSE 4 mph 2.4 mph 62% 0 in 49.00 W/m2 CLR
10:09 41.8 °F 30.5 °F 30.39 in SE 2.3 mph 2.2 mph 64% 0 in 26.00 W/m2 CLR
10:14 42.1 °F 28.4 °F 30.39 in SE 8.1 mph 2.8 mph 58% 0 in 25.00 W/m2 CLR
10:19 42.3 °F 30.2 °F 30.39 in SSE 5.8 mph 1.6 mph 62% 0 in 26.00 W/m2 CLR
10:24 43.2 °F 30.6 °F 30.39 in SSW 7 mph 2.2 mph 61% 0 in 25.00 W/m2 CLR
10:29 43.4 °F 29.6 °F 30.39 in South 6.9 mph 2.1 mph 58% 0 in 28.00 W/m2 CLR
10:34 43.7 °F 29.5 °F 30.39 in South 4.6 mph 3.2 mph 57% 0 in 35.00 W/m2 CLR
10:39 43.5 °F 28.8 °F 30.39 in SSW 8.1 mph 2.7 mph 56% 0 in 39.00 W/m2 CLR
10:44 43.7 °F 29 °F 30.38 in SSE 6.9 mph 4.5 mph 56% 0 in 141.00 W/m2 CLR
10:49 44.1 °F 29.4 °F 30.38 in South 3.5 mph 2.7 mph 56% 0 in 264.00 W/m2 CLR
10:54 44.9 °F 30.6 °F 30.38 in South 5 mph 5 mph 57% 0 in 220.00 W/m2 CLR
10:59 45 °F 31.1 °F 30.38 in South 8.1 mph 4.2 mph 58% 0 in 162.00 W/m2 CLR
11:04 45.4 °F 30.6 °F 30.37 in SSE 3.5 mph 1.9 mph 56% 0 in 297.00 W/m2 CLR
11:09 45.8 °F 29.6 °F 30.37 in SE 9.2 mph 5.2 mph 53% 0 in 339.00 W/m2 CLR
11:14 46.5 °F 30.7 °F 30.37 in ESE 6.9 mph 4.2 mph 54% 0 in 598.00 W/m2 CLR
11:19 47.2 °F 30.5 °F 30.36 in SE 6 mph 4.6 mph 52% 0 in 606.00 W/m2 CLR
11:24 48.1 °F 30.8 °F 30.36 in ESE 3.5 mph 2.2 mph 51% 0 in 612.00 W/m2 CLR
11:29 49 °F 31.6 °F 30.36 in South 8.1 mph 1.9 mph 51% 0 in 617.00 W/m2 CLR
11:34 48.8 °F 28.9 °F 30.36 in South 5 mph 4 mph 46% 0 in 622.00 W/m2 CLR
11:39 48.5 °F 28.1 °F 30.36 in SSE 6.9 mph 3.1 mph 45% 0 in 628.00 W/m2 CLR
11:44 48.8 °F 28.9 °F 30.36 in South 3 mph 1.6 mph 46% 0 in 631.00 W/m2 CLR
11:49 49.5 °F 29 °F 30.35 in SSE 5.8 mph 2.6 mph 45% 0 in 633.00 W/m2 CLR
11:54 50.2 °F 29.1 °F 30.35 in SSE 4.6 mph 2.1 mph 44% 0 in 636.00 W/m2 CLR
11:59 50.3 °F 29.7 °F 30.35 in SSE 3.5 mph 1.7 mph 45% 0 in 638.00 W/m2 CLR
12:04 50.7 °F 31.7 °F 30.34 in SSE 8 mph 1.9 mph 48% 0 in 640.00 W/m2 CLR
12:09 50.9 °F 30.3 °F 30.34 in South 3.5 mph 2.4 mph 45% 0 in 631.00 W/m2 CLR
12:14 51.5 °F 30.8 °F 30.34 in SSE 5.8 mph 1.8 mph 45% 0 in 612.00 W/m2 CLR
12:19 51.8 °F 31.1 °F 30.34 in South 4 mph 2.6 mph 45% 0 in 591.00 W/m2 CLR
12:24 52.3 °F 31.6 °F 30.34 in SSE 6 mph 1.9 mph 45% 0 in 566.00 W/m2 CLR
12:29 53.1 °F 32.8 °F 30.34 in SSW 3.5 mph 1.7 mph 46% 0 in 541.00 W/m2 CLR
12:34 53.3 °F 31.4 °F 30.34 in SSW 3.5 mph 0.8 mph 43% 0 in 524.00 W/m2 CLR
12:39 53.4 °F 31.4 °F 30.33 in SW 3.5 mph 1.6 mph 43% 0 in 510.00 W/m2 CLR
12:44 54.2 °F 31 °F 30.33 in SE 2.3 mph 1.6 mph 41% 0 in 508.00 W/m2 CLR
12:49 54.1 °F 31.5 °F 30.33 in SSW 3.5 mph 1.8 mph 42% 0 in 513.00 W/m2 CLR
12:54 54.4 °F 28.6 °F 30.32 in SSE 4 mph 2.3 mph 37% 0 in 531.00 W/m2 CLR
12:59 54.3 °F 31.1 °F 30.32 in ESE 2 mph 1.2 mph 41% 0 in 552.00 W/m2 CLR
13:04 54.5 °F 31.9 °F 30.32 in SE 3.5 mph 1.2 mph 42% 0 in 578.00 W/m2 CLR
13:09 55.3 °F 32.6 °F 30.32 in SSE 3.5 mph 1.6 mph 42% 0 in 598.00 W/m2 CLR
13:14 55.3 °F 32 °F 30.31 in South 3.5 mph 1.8 mph 41% 0 in 617.00 W/m2 CLR
13:19 55.7 °F 30.5 °F 30.31 in SSE 7 mph 2.4 mph 38% 0 in 631.00 W/m2 CLR
13:24 55.4 °F 30.2 °F 30.30 in South 2 mph 1.2 mph 38% 0 in 631.00 W/m2 CLR
13:29 55.3 °F 32.6 °F 30.30 in SW 3.5 mph 2 mph 42% 0 in 628.00 W/m2 CLR
13:34 55.6 °F 32.2 °F 30.30 in SE 3.5 mph 1.2 mph 41% 0 in 624.00 W/m2 CLR
13:39 55.7 °F 32.3 °F 30.29 in SE 3.5 mph 2.6 mph 41% 0 in 621.00 W/m2 CLR
13:44 55.7 °F 30.5 °F 30.29 in South 2.3 mph 1.5 mph 38% 0 in 617.00 W/m2 CLR
13:49 56.1 °F 31.5 °F 30.29 in SSE 5 mph 3.5 mph 39% 0 in 613.00 W/m2 CLR
13:54 56.1 °F 33.3 °F 30.28 in ESE 4.6 mph 1.6 mph 42% 0 in 610.00 W/m2 CLR
13:59 56.5 °F 31.2 °F 30.28 in SSE 2.3 mph 2 mph 38% 0 in 605.00 W/m2 CLR
14:04 56.5 °F 31.2 °F 30.28 in SSE 6.9 mph 1.6 mph 38% 0 in 599.00 W/m2 CLR
14:09 56.6 °F 31.3 °F 30.27 in South 2.3 mph 1.4 mph 38% 0 in 592.00 W/m2 CLR
14:14 56.2 °F 29.6 °F 30.27 in SSE 4.6 mph 2.7 mph 36% 0 in 584.00 W/m2 CLR
14:19 55.9 °F 31.9 °F 30.27 in SSE 4 mph 2.3 mph 40% 0 in 577.00 W/m2 CLR
14:24 55.8 °F 30.5 °F 30.26 in South 7 mph 1.7 mph 38% 0 in 515.00 W/m2 CLR
14:29 55.1 °F 29.3 °F 30.26 in SE 9.2 mph 2.7 mph 37% 0 in 218.00 W/m2 CLR
14:34 54.6 °F 30.7 °F 30.25 in South 3.5 mph 1.8 mph 40% 0 in 508.00 W/m2 CLR
14:39 54.7 °F 30.8 °F 30.25 in SE 4.6 mph 2.3 mph 40% 0 in 142.00 W/m2 CLR
14:44 54.6 °F 31.3 °F 30.25 in SSE 5.8 mph 6 mph 41% 0 in 30.00 W/m2 CLR
14:49 54.5 °F 32.4 °F 30.24 in ESE 3.5 mph 1.6 mph 43% 0 in 28.00 W/m2 CLR
14:54 54.6 °F 31.3 °F 30.24 in SSE 4 mph 1.5 mph 41% 0 in 26.00 W/m2 CLR
14:59 54.8 °F 30.3 °F 30.24 in SSE 2.3 mph 2.1 mph 39% 0 in 30.00 W/m2 CLR
15:04 54.8 °F 29.7 °F 30.24 in South 4.6 mph 3 mph 38% 0 in 26.00 W/m2 CLR
15:09 54.8 °F 30.9 °F 30.24 in South 3.5 mph 0.7 mph 40% 0 in 195.00 W/m2 CLR
15:14 54.9 °F 31 °F 30.24 in South 2.3 mph 1.8 mph 40% 0 in 46.00 W/m2 CLR
15:19 55 °F 31.1 °F 30.23 in SSE 9.2 mph 4.6 mph 40% 0 in 25.00 W/m2 CLR
15:24 55 °F 31.7 °F 30.23 in SSE 3.5 mph 1.1 mph 41% 0 in 25.00 W/m2 CLR
15:29 55.2 °F 32.5 °F 30.23 in SE 2 mph 1.2 mph 42% 0 in 26.00 W/m2 CLR
15:34 55.3 °F 31.4 °F 30.23 in SW 4.6 mph 1.7 mph 40% 0 in 23.00 W/m2 CLR
15:39 55.2 °F 30.7 °F 30.23 in SSE 3.5 mph 2.8 mph 39% 0 in 23.00 W/m2 CLR
15:44 55.3 °F 30.7 °F 30.23 in SSE 5 mph 2.7 mph 39% 0 in 23.00 W/m2 CLR
15:49 55.3 °F 32 °F 30.22 in SSE 6 mph 0.6 mph 41% 0 in 62.00 W/m2 CLR
15:54 55.5 °F 32.2 °F 30.22 in SSE 4.6 mph 1.8 mph 41% 0 in 21.00 W/m2 CLR
15:59 55.7 °F 32.3 °F 30.22 in SSE 2.3 mph 2.1 mph 41% 0 in 21.00 W/m2 CLR
16:04 55.8 °F 31.8 °F 30.21 in SE 4 mph 2.7 mph 40% 0 in 21.00 W/m2 CLR
16:09 55.7 °F 31.1 °F 30.21 in ESE 3.5 mph 2.2 mph 39% 0 in 25.00 W/m2 CLR
16:14 55.6 °F 32.2 °F 30.21 in SSE 2.3 mph 1.2 mph 41% 0 in 19.00 W/m2 CLR
16:19 55.5 °F 31.5 °F 30.20 in SE 4.6 mph 1.9 mph 40% 0 in 19.00 W/m2 CLR
16:24 55.5 °F 32.8 °F 30.20 in SSW 3.5 mph 1.6 mph 42% 0 in 18.00 W/m2 CLR
16:29 55.5 °F 32.2 °F 30.20 in SSE 6.9 mph 2.3 mph 41% 0 in 18.00 W/m2 CLR
16:34 55.5 °F 31.5 °F 30.20 in SE 2.3 mph 0.9 mph 40% 0 in 16.00 W/m2 CLR
16:39 55.5 °F 31.5 °F 30.20 in SE 6 mph 2.8 mph 40% 0 in 16.00 W/m2 CLR
16:44 55.7 °F 31.7 °F 30.19 in South 3.5 mph 3.9 mph 40% 0 in 14.00 W/m2 CLR
16:49 55.8 °F 33.6 °F 30.19 in South 3.5 mph 1.5 mph 43% 0 in 14.00 W/m2 CLR
16:54 55.7 °F 31.7 °F 30.19 in SSE 5.8 mph 2.5 mph 40% 0 in 12.00 W/m2 CLR
16:59 55.7 °F 32.9 °F 30.19 in SSE 5.8 mph 2.4 mph 42% 0 in 12.00 W/m2 CLR
17:04 55.7 °F 31.7 °F 30.19 in SSE 5 mph 1.8 mph 40% 0 in 11.00 W/m2 CLR
17:09 55.7 °F 32.9 °F 30.19 in SSE 3.5 mph 1.2 mph 42% 0 in 11.00 W/m2 CLR
17:14 55.7 °F 32.3 °F 30.18 in SSE 6.9 mph 1.6 mph 41% 0 in 9.00 W/m2 CLR
17:19 55.7 °F 32.3 °F 30.18 in South 4 mph 2.1 mph 41% 0 in 9.00 W/m2 CLR
17:24 55.5 °F 33.3 °F 30.18 in SSE 3.5 mph 3.1 mph 43% 0 in 9.00 W/m2 CLR
17:29 55.4 °F 33.8 °F 30.18 in SSE 4 mph 1.2 mph 44% 0 in 7.00 W/m2 CLR
17:34 55.3 °F 33.2 °F 30.18 in South 3.5 mph 2.1 mph 43% 0 in 7.00 W/m2 CLR
17:39 55.3 °F 33.7 °F 30.18 in SSE 2.3 mph 1.2 mph 44% 0 in 7.00 W/m2 CLR
17:44 55.2 °F 34.2 °F 30.18 in South 2.3 mph   45% 0 in 7.00 W/m2 CLR
17:49 55.1 °F 34.7 °F 30.18 in SSE 2 mph 1.9 mph 46% 0 in 5.00 W/m2 CLR
17:54 54.8 °F 33.8 °F 30.18 in SE 2.3 mph 0.3 mph 45% 0 in 5.00 W/m2 CLR
17:59 54.6 °F 35.8 °F 30.18 in SE 3.5 mph 0.6 mph 49% 0 in 0.00 W/m2 CLR
18:04 54.2 °F 35.9 °F 30.17 in SSE 3.5 mph 0.4 mph 50% 0 in 0.00 W/m2 CLR
18:09 53.8 °F 36.1 °F 30.17 in South 2 mph 0.8 mph 51% 0 in 0.00 W/m2 CLR
18:14 53.1 °F 34.9 °F 30.17 in Calm     50% 0 in 0.00 W/m2 CLR
18:19 52.3 °F 34.7 °F 30.17 in Calm     51% 0 in 0.00 W/m2 CLR
18:24 51.8 °F 35.7 °F 30.17 in Calm     54% 0 in 0.00 W/m2 CLR
18:29 51.3 °F 36.1 °F 30.17 in Calm     56% 0 in 0.00 W/m2 CLR
18:34 50.6 °F 35.9 °F 30.17 in Calm     57% 0 in 0.00 W/m2 CLR
18:39 50 °F 35.4 °F 30.17 in Calm     57% 0 in 0.00 W/m2 CLR
18:44 49.4 °F 38.9 °F 30.18 in Calm     67% 0 in 0.00 W/m2 CLR
18:49 49 °F 35.7 °F 30.17 in Calm     60% 0 in 0.00 W/m2 CLR
18:54 48.8 °F 37.9 °F 30.17 in South 1.2 mph   66% 0 in 0.00 W/m2 CLR
18:59 49 °F 36.5 °F 30.17 in Calm     62% 0 in 0.00 W/m2 CLR
19:04 48.9 °F 38.4 °F 30.17 in Calm     67% 0 in 0.00 W/m2 CLR
19:09 49 °F 37.3 °F 30.17 in Calm     64% 0 in 0.00 W/m2 CLR
19:14 48.7 °F 37.5 °F 30.17 in Calm     65% 0 in 0.00 W/m2 CLR
19:19 48.2 °F 36.2 °F 30.17 in Calm     63% 0 in 0.00 W/m2 CLR
19:24 47.6 °F 36.4 °F 30.17 in Calm     65% 0 in 0.00 W/m2 CLR
19:29 46.9 °F 35.4 °F 30.16 in South 1.2 mph 0.9 mph 64% 0 in 0.00 W/m2 CLR
19:34 46.3 °F 35.2 °F 30.16 in Calm     65% 0 in 0.00 W/m2 CLR
19:39 45.9 °F 35.2 °F 30.16 in Calm     66% 0 in 0.00 W/m2 CLR
19:44 45.5 °F 34.8 °F 30.16 in Calm     66% 0 in 0.00 W/m2 CLR
19:49 45.2 °F 34.9 °F 30.16 in Calm     67% 0 in 0.00 W/m2 CLR
19:54 45.1 °F 35.2 °F 30.16 in Calm     68% 0 in 0.00 W/m2 CLR
19:59 45 °F 36.2 °F 30.15 in Calm     71% 0 in 0.00 W/m2 CLR
20:04 44.9 °F 35.7 °F 30.15 in Calm     70% 0 in 0.00 W/m2 CLR
20:09 44.8 °F 35.2 °F 30.16 in Calm     69% 0 in 0.00 W/m2 CLR
20:14 44.7 °F 35.5 °F 30.15 in Calm     70% 0 in 0.00 W/m2 CLR
20:19 44.5 °F 35 °F 30.16 in Calm     69% 0 in 0.00 W/m2 CLR
20:24 44.4 °F 34.9 °F 30.16 in Calm     69% 0 in 0.00 W/m2 CLR
20:29 44.3 °F 34.8 °F 30.15 in Calm     69% 0 in 0.00 W/m2 CLR
20:34 44.3 °F 35.8 °F 30.15 in SSE 1.2 mph 0.1 mph 72% 0 in 0.00 W/m2 CLR
20:39 44.3 °F 35.5 °F 30.15 in Calm     71% 0 in 0.00 W/m2 CLR
20:44 44.6 °F 35.8 °F 30.15 in SSE 1.2 mph 0.7 mph 71% 0 in 0.00 W/m2 CLR
20:49 45.8 °F 35.8 °F 30.15 in SSE 2.3 mph 0.5 mph 68% 0 in 0.00 W/m2 CLR
20:54 46.7 °F 36.3 °F 30.15 in SSE 1.2 mph 0.8 mph 67% 0 in 0.00 W/m2 CLR
20:59 47.3 °F 36.1 °F 30.14 in Calm     65% 0 in 0.00 W/m2 CLR
21:04 47.6 °F 36 °F 30.14 in South 3.5 mph 1.1 mph 64% 0 in 0.00 W/m2 CLR
21:09 47.9 °F 36.3 °F 30.14 in Calm     64% 0 in 0.00 W/m2 CLR
21:14 48.1 °F 35.7 °F 30.14 in South 3.5 mph 2.8 mph 62% 0 in 0.00 W/m2 CLR
21:19 48.3 °F 35.9 °F 30.14 in South 2.3 mph 1 mph 62% 0 in 0.00 W/m2 CLR
21:24 48.4 °F 35.1 °F 30.14 in SSE 3.5 mph 1.4 mph 60% 0 in 0.00 W/m2 CLR
21:29 48.5 °F 36.1 °F 30.14 in Calm     62% 0 in 0.00 W/m2 CLR
21:34 48.4 °F 36 °F 30.14 in SSE 3.5 mph 0.6 mph 62% 0 in 0.00 W/m2 CLR
Fulton, MO, USA
Compliments of Weather Underground - 2 mb